Weather in Urdoma

Russia / Yaroslavl Oblast     57°56′32″N   39°35′06″E
temp.,
°C
wind,
m/s
gust,
m/s
humid.,
%
clouds,
%
prec.,
mm/h
press.,
hPa
HPBL,
m
23 october, sat
sat2300:00+5wsw7157437 0.0 9961108
03:00+5wsw714686 0.0 9971036
06:00+4sw6137677 0.0 997908
09:00+5sw6127783 0.1 998988
12:00+6sw71073100 0.0 10001084
15:00+6sw5887100 0.1 1001962
18:00+4sw4797100 1.5 1002861
21:00+4wsw3889100 2.8 1004387
24 october, sun
sun2400:00+3wsw389299 0.1 1005360
03:00+4wsw3790100 0.1 1005610
06:00+3wsw3797100 0.3 1006726
09:00+3w3797100 0.9 1007560
12:00+2nnw4997100 0.8 1009397
15:00+1nnw61191100 1.4 1013921
18:000nnw612735 0.2 1017872
21:00−1nnw511815 0.2 1020626
25 october, mon
mon2500:00−1nnw410835 0.0 1022474
03:00−2nw38875 0.0 1024272
06:00−2wnw24895 0.0 1026116
09:00−1w368515 0.0 1026269
12:00+1wsw476085 0.0 1025702
15:00+1sw5964100 0.0 1023867
18:000ssw51398100 2.4 1021721
21:00+2wsw6148099 2.8 1020669
26 october, tue
tue2600:00+2wsw61385100 0.0 1019545
03:00+2wsw5138834 0.0 1018554
06:000wsw5139396 0.0 1017448
09:00+1wsw51290100 0.0 1017481
12:00+3wsw5118077 0.0 1016556
15:00+4wsw5117973 0.0 1015591
18:00+2wsw41287100 0.0 1015388
21:00+2wsw41289100 0.0 1015368
27 october, wed
wed2700:00+1wsw41191100 0.0 1014350
03:00+2sw41190100 0.0 1013362
06:00+2sw41189100 0.0 1011379
09:00+2sw41190100 0.4 1010441
12:00+2wsw51194100 1.8 1010492
15:00+3wsw41196100 2.6 1009472
18:00+4wsw5119499 0.0 1010480
21:00+5w61389100 0.1 1010819